Tracking 17939 objects as of 25-February-2017
HD Live streaming from Space Station
objects crossing your sky now

IRIDIUM 33 DEB

Track IRIDIUM 33 DEB now!
10-day predictions


NORAD ID: 34150
Int'l Code: 1997-051ED
Perigee: 668.6 km
Apogee: 779.2 km
Inclination: 86.5 °
Period: 99.1 minutes
Semi major axis: 7094 km
RCS: 0.0227 m2 (small)
Launch date: September 14, 1997
Source: United States (US)
Launch site: TYURATAM MISSILE AND SPACE COMPLEX (TTMTR)

Note: This is SATELLITE DEBRIS
Your satellite tracking list
Your tracking list is empty





NASA's NSSDC Master Catalog

Two Line Element Set (TLE):
1 34150U 97051ED  17055.09469800  .00005511  00000-0  12865-2 0  9995
2 34150  86.4837  14.0224 0077916 302.0398 182.3579 14.52721176419903
Source of the keplerian elements: AFSPC